Regional Weather Roundup
Issued by NWS

Home | Current Version | Previous Version | Graphics & Text | Print | Product List | Glossary On
Versions: 1 2 3 4 5 6 7 8 9 10 11 12 13 14 15 16 17 18 19 20 21 22 23 24 25 26 27 28 29 30 31 32 33 34 35 36 37 38 39 40 41 42 43 44 45 46 47 48 49 50
000
ASUS43 KMKX 020810
RWRWI

WISCONSIN REGIONAL WEATHER ROUNDUP
NATIONAL WEATHER SERVICE MILWAUKEE/SULLIVAN WI
200 AM CST MON MAR 02 2015

NOTE: "FAIR" INDICATES FEW OR NO CLOUDS BELOW 12,000 FEET WITH NO
SIGNIFICANT WEATHER AND/OR OBSTRUCTIONS TO VISIBILITY.

WIZ001-002-006>008-014>016-023>028-020900-
NORTHWEST WISCONSIN

CITY           SKY/WX    TMP DP  RH WIND       PRES   REMARKS
SUPERIOR ARPT  CLEAR     10   5  77 SW3       30.38S
ASHLAND        CLEAR     15   5  64 W8        30.35R WCI   4
HAYWARD        CLEAR     11   4  73 CALM      30.34R
SIREN          CLEAR     10   4  79 W5        30.40R WCI   1
CUMBERLAND     CLEAR     12   5  73 NW8       30.37R WCI   1
RICE LAKE      PTCLDY    14   6  72 NW5       30.38R WCI   6
CHETEK         MOCLDY    14   7  73 W6        30.38R WCI   5
LADYSMITH      MOCLDY    16   8  72 NW14      30.34R WCI   1
EAU CLAIRE     CLEAR     16   6  65 NW10      30.39R WCI   4
MENOMONIE      CLEAR     17  10  72 NW10      30.40R WCI   5
NEW RICHMOND   CLEAR     13   7  75 NW9       30.42R WCI   1
OSCEOLA        CLEAR     14   8  75 NW7       30.46R WCI   4
$$

WIZ003>005-009-010-017-018-020900-
NORTH CENTRAL WISCONSIN

CITY           SKY/WX    TMP DP  RH WIND       PRES   REMARKS
MANITOWISH WTR FLURRIES  14   4  67 NW13G21   30.24R WCI  -1
ARBOR VITAE    MOCLDY    17   6  62 NW13G22   30.24R WCI   3
WOODRUFF       MOCLDY    17   6  62 NW13G22   30.24R WCI   3
RHINELANDER    FLURRIES  16   8  71 NW8G21    30.23R WCI   5
EAGLE RIVER    FLURRIES  15   7  68 NW12      30.22R WCI   2
LAND O LAKES   FLURRIES  15   9  78 NW9G16    30.22R WCI   3
PHILLIPS       MOCLDY    15   7  72 NW9G16    30.27R WCI   3
TOMAHAWK       FLURRIES  14   8  77 CALM      30.26R
MEDFORD        CLEAR     12   6  77 NW7       30.28R WCI   1
MERRILL        CLEAR     11   5  77 W3        30.28R
$$

WIZ029-030-035-036-043>047-020900-
CENTRAL WISCONSIN

CITY           SKY/WX    TMP DP  RH WIND       PRES   REMARKS
WAUSAU         CLEAR     12   5  73 W8        30.28R WCI   0
MOSINEE        CLEAR     14   9  79 W8        30.30R WCI   3
MARSHFIELD     CLEAR     15   7  70 NW15      30.31R WCI   0
STEVENS POINT  CLEAR     14   7  72 NW6       30.31R WCI   5
WAUPACA        CLEAR     18   9  66 W7        30.33R WCI   9
WAUTOMA        CLEAR     16   9  74 NW7       30.35R WCI   6
WISC RAPIDS    CLEAR     14   6  70 W8        30.35R WCI   3
CAMP DOUGLAS   CLEAR     13  11  92 W9        30.37R WCI   1
$$

WIZ011>013-019>022-031-037>040-048>050-020900-
NORTHEAST WISCONSIN

CITY           SKY/WX    TMP DP  RH WIND       PRES   REMARKS
ANTIGO         CLEAR     11   5  77 W6        30.24R WCI   1
SHAWANO        CLEAR     19   8  62 W7        30.30R WCI  10
OCONTO         CLEAR     15   6  68 W7        30.29R WCI   5
STURGEON BAY   CLEAR     16   5  62 W10       30.29R WCI   3
GREEN BAY      CLEAR     16   8  71 W10       30.31R WCI   4
MANITOWOC      CLEAR     17  10  74 W12       30.31R WCI   4
APPLETON       CLEAR     14   7  73 W9        30.32R WCI   2
CLINTONVILLE   CLEAR     16   7  67 W7        30.31R WCI   6
OSHKOSH        CLEAR     15   6  67 W6        30.33R WCI   6
$$

WIZ032>034-041-042-053>061-020900-
SOUTHWEST WISCONSIN

CITY           SKY/WX    TMP DP  RH WIND       PRES   REMARKS
LA CROSSE      CLOUDY    12   8  84 SE3       30.42R
SPARTA         PTCLDY     4   1  86 CALM      30.40R
VIROQUA        PTCLDY    14  10  85 W8        30.36R WCI   3
BOSCOBEL       CLEAR     14   8  77 SW6       30.43R WCI   5
PRAIRIE DU CHI CLEAR     16   9  74 W9        30.44R WCI   4
PLATTEVILLE    CLEAR      9   6  87 SW5       30.41R WCI   1
$$

WIZ056-057-062-063-064-067-068-020900-
SOUTH CENTRAL WISCONSIN

CITY           SKY/WX    TMP DP  RH WIND       PRES   REMARKS
REEDSBURG      CLEAR     15   9  76 SW3       30.38R
BARABOO/DELLS  CLEAR     16   9  74 W8        30.36R WCI   5
LONE ROCK      CLEAR     16   8  71 W9        30.41R WCI   4
MINERAL POINT  CLEAR     12   9  85 W7        30.37R WCI   2
MADISON        CLEAR     16   7  67 CALM      30.37R
MIDDLETON      CLEAR     16   8  72 W3        30.38R
WATERTOWN      CLEAR     10   4  78 CALM      30.36R
MONROE         CLEAR     14  10  85 W15       30.37S WCI  -1
JANESVILLE     CLEAR     18   9  68 W8        30.38S WCI   7
$$

WIZ051-052-058>065-066-070>072-020900-
SOUTHEAST WISCONSIN

CITY           SKY/WX    TMP DP  RH WIND       PRES   REMARKS
MILWAUKEE      CLEAR     18   6  59 W7        30.36R WCI   9
WAUKESHA       FAIR      14   7  73 W7        30.36R WCI   4
MILWAUKEE/TIMM CLEAR     18   7  62 W9        30.36R WCI   6
RACINE         CLEAR     17   6  62 W6        30.39R WCI   9
BURLINGTON     CLEAR     11   5  75 W3        30.38R
KENOSHA        CLEAR     14   6  70 W10       30.37R WCI   1
FOND DU LAC    CLEAR     14   5  67 SW8       30.34R WCI   3
SHEBOYGAN      CLEAR     17   7  64 W9        30.32R WCI   6
WEST BEND      CLEAR     18   9  68 W9        30.34R WCI   6
JUNEAU         CLEAR     10   5  79 SW6       30.36R WCI   0
$$

LSZ147-162-020900-
LAKE SUPERIOR

STATION/POSITION TIME  TEMP    WIND        PRES    WAVE
                       AIR SEA DIR/SP/G            HT/PER
                 (UTC) (F)     (DEG/KT/KT) (MB)    (FT/S)
DEVILS ISLAND    0800   18     280/ 13/ 16 1028.2R
PORT WING        0740   18     290/ 13/ 19 1028.1R
SAXON HARBOR     0740   19     280/  9/ 24 1027.4R
$$

LMZ867-665-643>646-020900-
LAKE MICHIGAN

STATION/POSITION TIME  TEMP    WIND        PRES    WAVE
                       AIR SEA DIR/SP/G            HT/PER
                 (UTC) (F)     (DEG/KT/KT) (MB)    (FT/S)
NORTHPORT PIER   0804   17     270/  8/ 16 1024.4R
SISTER BAY       0613   15     290/  9/ 10   N/A
KEWAUNEE LAKESHO 0700   18     290/  7/ 10 1023.8
SHEBOYGAN LAKESH 0800   20     270/  7/ 11 1028.6R
PORT WASHINGTON  0740   19     260/  6/  9 1028.1R
MILWAUKEE LAKESH 0700   21     280/ 12/ 15   N/A
KENOSHA   LAKESH 0800   17     270/ 10/ 13 1028.4R
$$

TC  - TEMPERATURE IN CELSIUS
VSB - VISIBILITY IN STATUTE MILES
WCI - WIND CHILL INDEX
HX  - HEAT INDEX



USA.gov is the U.S. government's official web portal to all federal, state and local government web resources and services.